Ingeniero Juan Guillermo Villasana Airport

Jump to: basic info | weather | frequencies | runways | comments

Related pages: nearby airports | nearby navaids | notams | map

Basic information (top)

Codes: MMPC
Location: lon 20.077400, lat -98.782501, elev 7,600 ft / 2,316 m msl
Status: small_airport

Weather (top)

Current conditions for Licenciado Benito Juarez International Airport 42nm (77km) SSW (rec'd 2014/09/15 01:45Z):

MMMX 150145Z 31005KT 12SM SCT020 SCT080 BKN200 18/13 A3031 NOSIG RMK 8/463 HZY

Airport forecast for Licenciado Benito Juarez International Airport 42nm (77km) SSW (rec'd 2014/09/13 00:17Z):

TAF MMMX 132313Z 1400/1506 10010KT P6SM SCT020 OVC080 TX24/1421Z TN14/1412Z 
      TEMPO 1400/1404 6SM -TSRA BKN020CB OVC080 
     FM140400 10006KT P6SM SCT020 BKN080 
      BECMG 1409/1410 5SM BR HZ 
     FM141600 06005KT 6SM HZ SCT020 BKN240 
      BECMG 1420/1421 10010KT SCT020CB PROB40 1420/1501 5SM TSRA BKN020CB 
     FM150300 10005KT P6SM SCT020 BKN080

Frequencies (top)

Verify before use: may be inaccurate or out of date.

AFIS: 122.9 MHz (AFIS)

Runways (top)

03/21: 6,825 x 85 ft (2,080 x 26 m) — paved — not lighted — threshold 03 displaced 656 ft (200 m) — threshold 21 displaced 865 ft (264 m)

Latest comments (top)

No comments yet for Ingeniero Juan Guillermo Villasana Airport

More... (top)

See also NOTAMs and nearby airports and navaids, or visit the Ingeniero Juan Guillermo Villasana Airport page at the main OurAirports website..